Location: Aspendale Community Hall
(46.6779°N, 116.8652°W)
Time: 23:01:39
(UTC+00:00)

Daily predictions for brighter satellites

Satellite Brightness Start Highest point End
(mag) Time Altitude Azimuth Time Altitude Azimuth Time Altitude Azimuth
Aureole 1 Rocket 4.3 12:09:02 66° N 12:10:10 81° ENE 12:17:40 10° SSE
ATLAS 3B R/B 4.5 12:09:17 21° N 12:10:58 23° N 12:16:56 10° ENE
Cosmos 2142 Rocket 4.5 12:14:09 77° SE 12:14:09 77° SE 12:19:54 10° S
Cosmos 1980 Rocket 3.7 12:28:37 23° S 12:28:37 23° S 12:30:44 10° S
COSMO-SKYMED 1 4.3 12:24:24 10° SE 12:27:58 29° ENE 12:29:23 23° NNE
BREEZE-M DEB (TANK) 3.9 12:31:04 31° E 12:31:04 31° E 12:33:41 10° E
Cosmos 2369 3.6 12:33:33 73° SSW 12:33:33 73° SSW 12:38:45 10° SSE
Nadezhda 4 Rocket 4.1 12:30:33 10° S 12:36:51 77° E 12:43:08 10° N
CZ-3 R/B 4.5 12:32:53 25° WSW 12:37:19 27° SW 12:46:03 10° S
COSMOS 2455 2.7 12:38:24 73° W 12:38:38 74° WSW 12:44:36 10° SSE
Tiangong 0.8 12:46:33 13° SSE 12:46:33 13° SSE 12:47:03 10° SSE
SKYMED 2 3.8 12:43:10 10° SSE 12:47:28 69° ENE 12:48:10 57° NNE
NOSS 3-1 (A) 4.3 12:50:44 27° NNW 12:54:51 61° NE 13:03:27 10° SE
Cosmos 2333 Rocket 2.9 12:52:38 22° NNW 12:56:15 53° ENE 13:01:51 10° SE
Cosmos 2360 Rocket 3.4 12:53:35 16° N 12:57:40 38° NE 13:02:52 10° ESE
NOSS 2-1 (D) 4.0 13:01:37 44° SSW 13:01:37 44° SSW 13:05:29 10° SSE
Cosmos 841 Rocket 3.3 12:59:06 31° SW 13:01:38 74° WNW 13:06:54 10° NNE
USA 59 Rocket 0.7 13:03:00 40° SSW 13:03:00 40° SSW 13:06:52 10° SSE
Cosmos 1606 Rocket 3.8 13:04:11 50° SW 13:04:11 50° SW 13:07:41 10° S
USA 234 4.1 13:01:34 10° ENE 13:07:25 36° N 13:09:53 27° NW
NOSS 2-1 (E) 3.6 13:11:15 50° SW 13:11:15 50° SW 13:15:39 10° SSE
Cosmos 2219 Rocket 3.7 13:10:28 10° NNW 13:15:33 33° NE 13:20:35 10° ESE
Cosmos 1484 Rocket 3.9 13:15:04 10° NNE 13:18:18 38° E 13:21:28 10° S
SJ-11-01 4.5 13:15:07 10° N 13:19:37 46° WNW 13:24:04 10° SW
Cosmos 2322 Rocket 2.7 13:16:06 15° NNW 13:20:44 60° ENE 13:26:21 10° SE
Cosmos 1627 Rocket 4.4 13:20:07 10° S 13:26:13 85° W 13:32:24 10° N
Cosmos 1898 Rocket 4.1 13:27:15 33° W 13:27:37 33° WSW 13:32:17 10° SSW
Cosmos 1726 Rocket 3.7 13:28:08 40° WNW 13:28:48 44° W 13:32:47 10° SSW
NOSS 2-1 (C) 4.3 13:30:06 30° WSW 13:30:15 30° SW 13:34:26 10° S
IRS-1D 3.5 13:25:29 10° N 13:30:22 54° WNW 13:35:18 10° SW
Okean 1 3.1 13:28:48 16° N 13:31:32 73° E 13:35:05 10° SSE
Meteor 2-3 Rocket 3.7 13:27:47 10° SSW 13:33:27 60° WNW 13:39:05 10° N
Cosmos 1733 4.4 13:32:34 10° SE 13:33:42 16° E 13:33:49 16° E
Meteor 1-26 Rocket 4.1 13:29:15 10° NNW 13:34:48 84° W 13:40:29 10° S
NOSS 3-1 (C) 4.3 13:33:41 24° WNW 13:38:16 51° WSW 13:46:50 10° SSE
Helios 1A Rocket 2.6 13:36:29 10° S 13:39:42 47° W 13:40:25 39° WNW
Cosmos 2285 Rocket 4.3 13:34:14 10° NNW 13:40:36 69° ENE 13:46:59 10° SSE
COSMOS 2406 3.4 13:36:23 10° SW 13:41:51 48° WNW 13:47:21 10° NNE
Cosmos 1626 Rocket 4.0 13:41:24 10° S 13:45:47 66° E 13:50:08 10° NNE
SL-16 R/B 2.4 13:44:11 19° NW 13:48:09 52° WSW 13:53:36 10° S
Cosmos 2082 Rocket 3.1 13:48:00 23° WNW 13:49:37 26° NW 13:54:18 10° N
Cosmos 1937 Rocket 4.3 13:48:18 24° WNW 13:49:57 28° W 13:54:18 10° SSW
Cosmos 1892 Rocket 4.0 13:45:55 10° SW 13:49:58 38° WNW 13:54:06 10° N
SL-4 R/B 1.7 13:51:22 29° NW 13:52:44 54° NNE 13:55:52 10° E
Cosmos 2026 Rocket 4.0 13:46:59 10° SSW 13:52:51 52° WNW 13:58:49 10° N
ARIANE 5 R/B 4.0 13:54:27 10° NNE 13:59:23 41° E 14:04:18 10° SSE
Cosmos-2242 3.2 13:56:52 10° NNW 14:00:55 44° W 14:04:54 10° SSW
COSMO-SKYMED 1 3.4 13:59:41 10° SSW 14:03:14 28° W 14:05:43 16° NW
ATLAS 3B R/B 3.9 13:56:42 10° NW 14:04:03 40° NE 14:11:08 10° ESE
BREEZE M DEB (TANK) 2.8 14:03:17 10° SW 14:05:32 46° SE 14:09:45 10° ENE
IRIDIUM 104 4.3 14:01:18 10° S 14:06:31 79° W 14:11:46 10° N
CZ-2D R/B 4.0 14:04:37 10° NNE 14:07:42 44° E 14:10:45 10° S
BREEZE-M DEB (TANK) 2.9 14:07:27 20° WNW 14:09:04 45° N 14:11:15 10° ENE
Cosmos 2278 4.2 14:07:08 12° NW 14:11:49 39° WSW 14:16:59 10° S
NOSS 8 (A) 4.0 14:11:34 17° NW 14:13:43 78° SW 14:17:02 10° SE
S3M 4.5 14:08:45 10° N 14:14:56 64° ENE 14:21:00 10° SSE
Cosmos 405 Rocket 2.3 14:12:09 10° SSW 14:15:21 56° WNW 14:18:35 10° N
Cosmos 1814 Rocket 4.0 14:10:22 10° SSW 14:15:34 68° WNW 14:20:52 10° NNE
IRIDIUM 114 4.3 14:10:29 10° SSW 14:15:40 65° W 14:20:53 10° N
Cosmos 1553 Rocket 4.1 14:10:35 10° NNW 14:16:54 63° W 14:23:12 10° S
Cosmos 1812 Rocket 3.7 14:13:40 10° N 14:17:59 79° E 14:22:19 10° SSE
Cosmos 1092 Rocket 4.4 14:13:03 10° SW 14:18:54 39° WNW 14:24:43 10° N
CBERS-1 4.0 14:14:04 10° N 14:19:08 65° WNW 14:24:09 10° SSW
KORONAS-FOTON 4.4 14:15:56 10° N 14:19:14 48° ENE 14:22:30 10° SSE
CORIOLIS 4.3 14:15:03 10° NNE 14:20:27 85° ESE 14:25:52 10° SSW
Cosmos 1707 3.1 14:18:32 10° N 14:21:38 50° E 14:24:40 10° SSE
Cosmos 1602 Rocket 3.6 14:19:37 10° S 14:24:03 87° ESE 14:28:32 10° N
Cosmos 2058 Rocket 4.1 14:20:46 10° NNW 14:24:24 25° W 14:27:58 10° SW
IRIDIUM 103 4.4 14:19:45 10° SSW 14:24:51 54° W 14:30:00 10° N
ATLAS 2AS CENTAUR R/B 3.2 14:21:10 10° SSW 14:28:09 67° ESE 14:34:59 10° NE
MOS 1 Rocket 4.0 14:23:51 10° NNE 14:29:15 71° E 14:34:30 10° S
IGS 5A 3.9 14:26:35 10° N 14:30:16 35° WNW 14:33:56 10° SW
Cosmos 1842 3.8 14:30:18 10° N 14:33:33 50° ENE 14:36:47 10° SSE
AQUARIUS 4.4 14:30:07 10° NNE 14:34:33 73° ESE 14:38:56 10° S
Thor Agena Rocket 3.5 14:30:27 10° N 14:35:29 67° WNW 14:40:27 10° SSW
Cosmos 2333 Rocket 3.2 14:35:26 10° NW 14:40:14 28° WSW 14:44:59 10° SSW
SJ-12 3.7 14:37:41 10° N 14:41:30 74° WNW 14:45:18 10° SSW
Cosmos 2360 Rocket 2.8 14:36:27 10° NW 14:41:38 38° WSW 14:46:45 10° S
Cosmos 1833 4.2 14:37:21 10° SW 14:42:57 63° WNW 14:48:38 10° NNE
IRS-1C 4.2 14:40:45 10° NNE 14:46:06 85° WNW 14:51:25 10° SSW
Meteor 1-10 Rocket 4.4 14:43:19 10° NNW 14:49:13 75° W 14:55:08 10° S
USA 234 3.8 14:43:22 10° E 14:49:38 50° NNE 14:55:54 10° NW
Cosmos 2266 Rocket 4.1 14:44:31 10° SSW 14:50:53 69° W 14:57:13 10° N
Cosmos 158 Rocket 4.4 14:46:52 10° SW 14:51:54 42° WNW 14:56:52 10° N
Cosmos 2237 Rocket 3.8 14:47:01 10° N 14:51:56 29° NE 14:56:48 10° ESE
